When you browse on this site, cookies collect data to enhance your experience and personalize the content and advertising you see.
Visit our Privacy Policy to learn more. By continuing to use the site, you agree to this use of cookies and data.
  • In Hungary
  • List of Countries
  • For 7 days
  • Water Temperature
  • Satellite Maps
  • Weather Map
  • News
  • Weather Widgets
  • user-avatar
    Login

    Hourly Weather Soce

    Today, 21 May, Tuesday

    Time Temperature Precipitation Wind Pressure Humidity
    00:00 +18°C° 0 mm 3 mps 743 mmHg 93%
    01:00 +17°C° 0 mm 3 mps 743 mmHg 94%
    02:00 +17°C° 0 mm 3 mps 742 mmHg 94%
    03:00 +16°C° 0 mm 3 mps 743 mmHg 95%
    04:00 +16°C° 0 mm 3 mps 743 mmHg 96%
    05:00 +16°C° 0 mm 3 mps 743 mmHg 96%
    06:00 +17°C° 0 mm 4 mps 743 mmHg 93%
    07:00 +18°C° 0 mm 4 mps 743 mmHg 90%
    08:00 +19°C° 0 mm 5 mps 743 mmHg 86%
    09:00 +20°C° 0 mm 5 mps 742 mmHg 81%
    10:00 +21°C° 0 mm 5 mps 742 mmHg 76%
    11:00 +22°C° 0 mm 6 mps 742 mmHg 71%
    12:00 +22°C° 0.9 mm 6 mps 742 mmHg 74%
    13:00 +21°C° 0.9 mm 7 mps 741 mmHg 77%
    14:00 +21°C° 0.9 mm 7 mps 741 mmHg 80%
    15:00 +21°C° 0.4 mm 7 mps 741 mmHg 79%
    16:00 +21°C° 0.4 mm 7 mps 741 mmHg 78%
    17:00 +21°C° 0.4 mm 6 mps 741 mmHg 77%
    18:00 +20°C° 0.1 mm 5 mps 741 mmHg 80%
    19:00 +18°C° 0.1 mm 4 mps 741 mmHg 83%
    20:00 +17°C° 0.1 mm 4 mps 741 mmHg 86%
    21:00 +16°C° 0 mm 3 mps 741 mmHg 88%
    22:00 +14°C° 0 mm 3 mps 741 mmHg 91%
    23:00 +14°C° 0 mm 2 mps 741 mmHg 93%

    Tomorrow, 22 May, Wednesday

    Time Temperature Precipitation Wind Pressure Humidity
    00:00 +12°C° 0 mm 3 mps 741 mmHg 93%
    01:00 +12°C° 0 mm 3 mps 741 mmHg 93%
    02:00 +11°C° 0 mm 3 mps 741 mmHg 93%
    03:00 +11°C° 0 mm 3 mps 741 mmHg 93%
    04:00 +11°C° 0 mm 3 mps 741 mmHg 93%
    05:00 +11°C° 0 mm 4 mps 741 mmHg 93%
    06:00 +12°C° 0 mm 4 mps 741 mmHg 87%
    07:00 +14°C° 0 mm 4 mps 741 mmHg 82%
    08:00 +15°C° 0 mm 5 mps 741 mmHg 76%
    09:00 +17°C° 0 mm 5 mps 741 mmHg 73%
    10:00 +19°C° 0 mm 4 mps 742 mmHg 69%
    11:00 +20°C° 0 mm 4 mps 742 mmHg 66%
    12:00 +20°C° 0.3 mm 4 mps 742 mmHg 66%
    13:00 +21°C° 0.3 mm 4 mps 741 mmHg 66%
    14:00 +21°C° 0.3 mm 4 mps 741 mmHg 66%
    15:00 +21°C° 0.5 mm 4 mps 741 mmHg 68%
    16:00 +21°C° 0.5 mm 4 mps 741 mmHg 71%
    17:00 +21°C° 0.5 mm 4 mps 741 mmHg 74%
    18:00 +19°C° 0.3 mm 3 mps 741 mmHg 79%
    19:00 +18°C° 0.3 mm 3 mps 741 mmHg 84%
    20:00 +17°C° 0.3 mm 2 mps 741 mmHg 89%
    21:00 +16°C° 0 mm 2 mps 741 mmHg 91%
    22:00 +15°C° 0 mm 2 mps 741 mmHg 93%
    23:00 +14°C° 0 mm 1 mps 742 mmHg 95%

    Day after tomorrow, 23 May, Thursday

    Time Temperature Precipitation Wind Pressure Humidity
    00:00 +14°C° 0 mm 1 mps 742 mmHg 95%
    01:00 +13°C° 0 mm 1 mps 742 mmHg 95%
    02:00 +13°C° 0 mm 1 mps 742 mmHg 95%
    03:00 +13°C° 0 mm 1 mps 742 mmHg 95%
    04:00 +12°C° 0 mm 1 mps 742 mmHg 95%
    05:00 +12°C° 0 mm 1 mps 742 mmHg 95%
    06:00 +14°C° 0 mm 1 mps 743 mmHg 90%
    07:00 +16°C° 0 mm 1 mps 743 mmHg 85%
    08:00 +18°C° 0 mm 1 mps 743 mmHg 79%
    09:00 +20°C° 0 mm 1 mps 743 mmHg 73%
    10:00 +21°C° 0 mm 1 mps 744 mmHg 67%
    11:00 +23°C° 0 mm 1 mps 744 mmHg 61%
    12:00 +23°C° 0 mm 1 mps 744 mmHg 61%
    13:00 +23°C° 0 mm 1 mps 744 mmHg 61%
    14:00 +21°C° 0 mm 0 mps 744 mmHg 60%
    15:00 +23°C° 0 mm 1 mps 744 mmHg 61%
    16:00 +23°C° 0 mm 1 mps 743 mmHg 62%
    17:00 +23°C° 0 mm 1 mps 743 mmHg 62%
    18:00 +21°C° 0.4 mm 2 mps 744 mmHg 72%
    19:00 +19°C° 0.4 mm 3 mps 744 mmHg 82%
    20:00 +17°C° 0.4 mm 4 mps 744 mmHg 91%
    21:00 +15°C° 0 mm 4 mps 744 mmHg 93%
    22:00 +15°C° 0 mm 4 mps 744 mmHg 94%
    23:00 +14°C° 0 mm 4 mps 745 mmHg 96%

    24 May, Friday

    Time Temperature Precipitation Wind Pressure Humidity
    00:00 +13°C° 0 mm 4 mps 745 mmHg 96%
    01:00 +13°C° 0 mm 4 mps 745 mmHg 95%
    02:00 +13°C° 0 mm 4 mps 745 mmHg 95%
    03:00 +12°C° 0.2 mm 4 mps 745 mmHg 95%
    04:00 +12°C° 0.2 mm 3 mps 745 mmHg 95%
    05:00 +12°C° 0.2 mm 3 mps 745 mmHg 95%
    06:00 +12°C° 0.1 mm 3 mps 745 mmHg 94%
    07:00 +12°C° 0.1 mm 3 mps 745 mmHg 93%
    08:00 +14°C° 0.1 mm 2 mps 745 mmHg 92%
    09:00 +14°C° 0 mm 2 mps 745 mmHg 90%
    10:00 +15°C° 0 mm 2 mps 745 mmHg 88%
    11:00 +16°C° 0 mm 2 mps 745 mmHg 85%
    12:00 +16°C° 0 mm 2 mps 745 mmHg 83%
    13:00 +17°C° 0 mm 2 mps 745 mmHg 81%
    14:00 +18°C° 0 mm 3 mps 745 mmHg 79%
    15:00 +18°C° 0 mm 3 mps 744 mmHg 79%
    16:00 +18°C° 0 mm 3 mps 744 mmHg 78%
    17:00 +19°C° 0 mm 3 mps 744 mmHg 78%
    18:00 +18°C° 0 mm 3 mps 744 mmHg 80%
    19:00 +17°C° 0 mm 3 mps 744 mmHg 83%
    20:00 +16°C° 0 mm 2 mps 744 mmHg 86%
    21:00 +15°C° 0 mm 2 mps 744 mmHg 86%
    22:00 +14°C° 0 mm 3 mps 744 mmHg 85%
    23:00 +13°C° 0 mm 3 mps 744 mmHg 85%

    25 May, Saturday

    Time Temperature Precipitation Wind Pressure Humidity
    00:00 +12°C° 0 mm 3 mps 744 mmHg 87%
    01:00 +12°C° 0 mm 2 mps 744 mmHg 88%
    02:00 +9°C° 0 mm 2 mps 743 mmHg 90%
    03:00 +9°C° 0 mm 2 mps 743 mmHg 89%
    04:00 +9°C° 0 mm 2 mps 743 mmHg 87%
    05:00 +8°C° 0 mm 2 mps 743 mmHg 85%
    06:00 +10°C° 0 mm 2 mps 743 mmHg 78%
    07:00 +13°C° 0 mm 2 mps 743 mmHg 71%
    08:00 +15°C° 0 mm 2 mps 743 mmHg 63%
    09:00 +17°C° 0 mm 2 mps 743 mmHg 63%
    10:00 +18°C° 0 mm 3 mps 743 mmHg 63%
    11:00 +19°C° 0 mm 3 mps 743 mmHg 63%
    12:00 +19°C° 0.6 mm 4 mps 742 mmHg 66%
    13:00 +19°C° 0.6 mm 5 mps 742 mmHg 69%
    14:00 +19°C° 0.6 mm 6 mps 742 mmHg 72%
    15:00 +19°C° 0.3 mm 6 mps 742 mmHg 72%
    16:00 +17°C° 0.3 mm 6 mps 742 mmHg 71%
    17:00 +16°C° 0.3 mm 7 mps 742 mmHg 71%
    18:00 +15°C° 0 mm 6 mps 742 mmHg 73%
    19:00 +14°C° 0 mm 5 mps 742 mmHg 74%
    20:00 +12°C° 0 mm 4 mps 743 mmHg 76%
    21:00 +11°C° 0 mm 4 mps 743 mmHg 79%
    22:00 +10°C° 0 mm 4 mps 743 mmHg 81%
    23:00 +8°C° 0 mm 4 mps 743 mmHg 84%

    26 May, Sunday

    Time Temperature Precipitation Wind Pressure Humidity
    00:00 +8°C° 0 mm 4 mps 743 mmHg 86%
    01:00 +7°C° 0 mm 4 mps 743 mmHg 89%
    02:00 +7°C° 0 mm 4 mps 743 mmHg 92%
    03:00 +7°C° 0 mm 4 mps 742 mmHg 91%
    04:00 +7°C° 0 mm 4 mps 742 mmHg 91%
    05:00 +7°C° 0 mm 4 mps 742 mmHg 91%
    06:00 +8°C° 0.1 mm 5 mps 741 mmHg 89%
    07:00 +9°C° 0.1 mm 5 mps 741 mmHg 87%
    08:00 +10°C° 0.1 mm 6 mps 741 mmHg 85%
    09:00 +11°C° 0.3 mm 6 mps 741 mmHg 83%
    10:00 +11°C° 0.3 mm 6 mps 741 mmHg 80%
    11:00 +13°C° 0.3 mm 6 mps 741 mmHg 77%
    12:00 +12°C° 0.2 mm 7 mps 741 mmHg 76%
    13:00 +12°C° 0.2 mm 7 mps 741 mmHg 75%
    14:00 +12°C° 0.2 mm 8 mps 741 mmHg 73%
    15:00 +11°C° 0.1 mm 8 mps 741 mmHg 73%
    16:00 +10°C° 0.1 mm 8 mps 741 mmHg 72%
    17:00 +9°C° 0.1 mm 8 mps 741 mmHg 72%
    18:00 +9°C° 0.1 mm 7 mps 741 mmHg 73%
    19:00 +8°C° 0.1 mm 6 mps 741 mmHg 75%
    20:00 +7°C° 0.1 mm 5 mps 741 mmHg 77%
    21:00 +7°C° 0 mm 5 mps 741 mmHg 78%
    22:00 +7°C° 0 mm 5 mps 740 mmHg 79%
    23:00 +6°C° 0 mm 5 mps 740 mmHg 81%
    Show more